User: anonymous   Login
Location: ??
(35.5052°N, 139.7262°E)
Time: 07:39:46
(UTC+00:00)
Language:

BREEZE-M DEB (TANK) - Orbit

View from above orbital plane
View from above orbital plane
View from above satellite
View from above satellite

Ground track
Ground track

The orbit data is extracted from the following two-line orbital elements,

1 33279U 08039B   21263.15182795 -.00000048  00000-0  62861-4 0  9996
2 33279  45.9449 191.9182 4837415 159.7564 229.1620  5.71848581271459
Epoch (UTC): 20 September 2021 03:38:37
Eccentricity: 0.4837415
inclination: 45.9449°
perigee height: 441 km
apogee height: 13221 km
right ascension of ascending node: 191.9182°
argument of perigee: 159.7564°
revolutions per day: 5.71848581
mean anomaly at epoch: 229.1620°
orbit number at epoch: 27145

The dashed part of the orbit path shows where the satellite is in the earth's shadow,  

DLR